Flag for U.S.A. Weather past 2 weeks in Gainesville, Florida, U.S.A.

Now
86 °F

Partly sunny.


Feels Like: 94 °F
Forecast: 72 / 88 °F
Wind: 6 mph from West

Location: Gainesville Regional Airport

Current Time: Jul 30, 2015 at 12:40:20 PM

Latest Report: Jul 30, 2015 at 11:53 AM


Visibility: 10 mi

Pressure: 29.99 "Hg

Humidity: 67%

Dew point: 74 °F

Location of GainesvilleLocation

Historic Weather in Gainesville — Graph

°F

Gainesville temperature yesterday

Maximum temperature yesterday: 94 °F (at 5:00 PM)
Minimum temperature yesterday: 74 °F (at 7:00 PM)
Average temperature yesterday: 81 °F

Past Weeks' High & Low Weather Summary

 TemperatureHumidityPressure
High94 °F (Jul 19, 3:53 PM)97% (Jul 17, 7:53 PM)30.04 "Hg (Jul 17, 7:53 PM)
Low72 °F (Jul 25, 5:53 AM)46% (Jul 19, 3:53 PM)29.85 "Hg (Jul 26, 3:53 AM)
Average80 °F82%29.95 "Hg
* Reported Jul 15 10:53 AM — Jul 30 10:53 AM, Gainesville, Weather by CustomWeather, © 2015

Note: Actual official high and low records may vary slightly from our data, if they occured in-between our weather recording intervals... More about our weather records

Advertising

Gainesville weather history for previous 24 hours

 ConditionsComfort  
Time TempWeatherWind HumidityBarometerVisibility
10:53 AM
Thu, Jul 30
85 °FSunny.No wind70%29.99 "Hg10 mi
9:53 AM82 °FSunny.7 mph77%29.98 "Hg10 mi
8:53 AM79 °FSunny.5 mph84%29.97 "Hg10 mi
7:53 AM75 °FSunny.No wind96%29.95 "Hg8 mi
6:53 AM73 °FClear.3 mph97%29.95 "Hg7 mi
5:53 AM73 °FClear.3 mph97%29.94 "Hg7 mi
4:53 AM73 °FClear.No wind97%29.93 "Hg10 mi
3:53 AM73 °FPassing clouds.3 mph94%29.94 "Hg8 mi
2:53 AM73 °FLow clouds.No wind97%29.95 "Hg10 mi
1:53 AM73 °FPassing clouds.No wind97%29.96 "Hg10 mi
12:53 AM73 °FClear.3 mph97%29.98 "Hg10 mi
11:53 PM
Wed, Jul 29
74 °FClear.No wind94%29.98 "Hg10 mi
10:53 PM74 °FClear.5 mph94%29.95 "Hg10 mi
9:53 PM74 °FPassing clouds.7 mph94%29.94 "Hg10 mi
8:53 PM74 °FPartly sunny.3 mph94%29.96 "Hg10 mi
7:53 PM74 °FThundershowers. Fog.No wind94%29.98 "Hg5 mi
7:00 PM74 °FLight rain. Mostly cloudy.10 mph97%29.97 "Hg10 mi
6:04 PM76 °FThunderstorms. Mostly cloudy.15 mph91%29.97 "Hg10 mi
5:00 PM94 °FThundershowers. Broken clouds.9 mph51%29.89 "Hg10 mi
3:53 PM92 °FPartly sunny.6 mph56%29.88 "Hg10 mi
2:53 PM93 °FScattered clouds.6 mph56%29.90 "Hg10 mi
1:53 PM93 °FPassing clouds.7 mph58%29.92 "Hg10 mi
12:53 PM93 °FSunny.9 mph56%29.95 "Hg10 mi
Weather by CustomWeather, © 2015

See weather overviewHow to use our weather pages